Theta_e
316 316 316 317 317 317 317 317 317 318 318 318 318 318 319 319 319 319 319 319 319 319 319 319 318 318 318 318 317 317 318 312 309 306 306 308 316 325 334 336 334 335 340 331 333 336 330 326 327 334 330 330 325 329 335 336 334 337 324 320 316 317 313 317 319 318 320 324 327 331 332 330 327 333 336 342 336 334 333 333 335 337 337 339 340 343 344 345
317 317 317 317 317 317 317 317 317 317 318 318 318 318 318 319 319 319 319 319 319 319 319 318 318 318 318 317 317 318 315 311 307 307 306 315 327 328 334 335 341 340 341 327 332 330 326 322 322 325 325 322 321 323 334 329 336 326 323 320 314 316 320 322 322 323 321 320 328 331 332 330 329 332 333 330 329 330 329 330 333 332 335 339 341 342 342 343
317 317 317 317 317 318 317 317 317 317 317 317 318 318 318 318 318 318 319 318 318 318 318 318 318 318 317 317 317 319 313 307 307 304 309 328 331 331 334 336 343 343 330 326 331 327 323 323 321 322 320 315 318 319 330 325 331 327 323 315 317 322 322 324 324 323 326 328 328 329 331 330 331 333 335 329 328 329 326 327 329 330 331 335 338 340 341 341
317 317 317 317 317 317 317 318 318 317 317 317 317 318 318 318 318 318 318 318 318 318 318 318 317 317 317 317 319 314 312 307 303 308 312 337 341 335 335 339 342 344 326 321 325 323 320 324 320 320 315 311 312 317 322 325 326 328 322 318 321 325 322 325 327 326 328 332 329 328 330 328 331 333 331 329 326 327 328 331 330 329 332 335 337 339 340 339
317 317 317 317 317 317 318 318 318 317 317 317 318 318 318 318 318 318 318 318 318 318 318 317 317 317 317 319 316 306 302 295 307 312 317 347 349 339 334 340 343 334 315 318 322 321 321 319 318 315 312 307 310 312 317 324 331 326 323 326 326 325 321 326 326 326 325 329 330 329 327 326 333 332 330 330 324 324 329 332 334 334 335 336 336 338 339 338
316 317 317 317 317 317 317 318 317 317 317 317 318 318 318 318 317 317 318 318 318 318 317 317 317 317 318 318 309 309 301 291 306 308 346 339 352 343 336 341 346 323 314 322 320 318 317 316 315 310 308 308 308 308 311 321 327 314 319 325 328 328 325 327 324 324 326 326 328 326 329 332 330 329 332 331 328 330 334 336 336 336 337 338 339 338 337 337
316 317 317 317 317 317 317 317 317 317 317 318 318 318 318 317 317 317 317 317 317 317 317 317 317 317 317 318 310 307 297 299 305 308 329 337 354 348 340 340 343 311 315 320 316 315 313 314 312 309 308 308 309 309 312 314 319 318 314 318 320 325 325 328 326 327 325 326 326 329 332 329 329 324 332 329 332 333 336 338 337 338 339 339 337 337 337 337
316 316 316 316 317 317 317 317 317 317 317 317 318 318 318 317 317 317 317 317 317 318 317 317 317 317 318 309 307 301 298 297 303 310 344 345 349 347 341 332 317 308 312 320 316 313 313 311 308 309 307 307 308 310 312 313 315 313 314 318 319 319 320 321 321 321 324 325 327 329 327 328 330 328 331 329 332 334 336 338 337 338 338 337 337 336 337 337
316 316 316 316 316 317 317 317 317 317 317 317 317 317 317 317 317 317 317 318 318 317 317 317 317 318 320 310 303 294 294 305 312 320 338 339 341 338 330 326 314 307 307 316 318 315 312 309 307 310 302 307 311 310 312 311 309 314 315 319 317 318 320 321 320 320 322 326 327 325 325 328 330 332 329 331 333 335 337 337 337 337 336 336 336 337 336 337
316 316 316 316 316 316 317 317 317 317 317 317 317 316 316 317 317 317 318 318 318 318 317 317 318 319 313 307 299 290 298 310 313 317 333 334 331 328 325 326 315 308 304 306 313 315 310 310 307 310 309 308 312 310 312 312 310 315 316 316 316 317 318 320 319 319 322 325 326 323 322 324 330 328 320 331 334 336 336 335 336 335 334 335 336 336 337 337
316 316 316 316 316 316 316 317 317 317 317 317 316 316 316 317 317 317 318 318 318 318 319 319 319 317 307 308 296 291 303 313 312 313 322 328 327 324 322 323 316 310 307 304 310 317 315 313 311 312 310 305 310 309 311 312 316 315 315 315 315 317 318 319 319 319 322 322 324 324 322 323 327 327 322 329 333 336 334 334 334 334 334 335 336 336 337 338
316 315 316 316 316 316 316 316 317 317 317 316 315 316 316 316 316 317 318 319 318 319 318 320 320 316 311 303 298 300 308 313 311 312 315 322 322 324 324 324 317 312 309 305 306 314 316 315 314 310 299 310 304 309 308 314 313 313 314 309 312 314 314 316 316 318 322 320 325 323 321 317 321 321 326 331 334 335 334 333 333 333 334 335 335 336 337 337
315 315 315 316 315 316 316 316 317 317 315 315 316 315 315 315 316 318 320 320 319 319 320 322 320 315 306 297 302 310 313 314 312 315 319 316 319 324 325 324 318 313 310 308 307 310 313 316 315 308 307 307 304 301 307 313 312 313 311 309 308 309 309 315 317 317 318 321 325 324 309 312 317 323 326 332 333 334 333 332 333 333 334 334 335 335 336 338
315 315 315 315 315 315 316 316 316 315 315 315 315 314 314 314 316 320 322 318 320 321 322 323 316 312 305 298 307 312 313 313 318 320 318 316 313 316 324 323 320 318 316 310 308 308 311 312 314 311 312 307 304 309 307 306 311 305 309 310 304 304 304 314 316 315 315 322 324 324 310 310 316 320 328 332 334 332 330 332 332 333 333 334 334 335 336 337
315 315 315 315 315 316 316 315 315 314 315 315 313 313 313 313 318 322 321 321 322 323 323 321 313 307 300 303 312 317 330 327 320 308 320 309 310 309 318 322 319 319 315 312 309 310 310 309 312 309 305 310 310 306 300 302 302 304 304 301 304 303 305 312 314 317 313 320 325 321 311 313 316 319 329 332 333 332 330 331 332 332 333 334 334 334 335 337
314 314 314 314 315 315 315 314 314 314 314 313 312 312 313 317 323 323 322 322 325 324 319 311 311 310 303 296 305 321 318 307 302 305 316 308 309 309 311 321 320 319 318 314 314 316 309 310 307 307 307 306 304 300 298 297 298 300 302 297 300 303 306 308 311 317 318 319 322 320 309 313 315 320 329 331 332 331 330 330 331 332 332 333 334 334 335 336
314 314 313 314 315 314 314 313 313 314 312 312 311 312 315 321 323 323 323 324 323 319 314 310 311 312 298 307 314 303 300 302 304 304 303 304 305 306 315 318 316 315 315 312 310 308 307 306 305 306 305 301 299 300 295 293 293 295 299 299 298 302 304 303 305 308 316 319 315 320 316 313 314 322 328 330 331 330 329 330 331 332 332 333 334 334 334 335
314 313 314 315 314 314 314 313 313 312 311 310 310 311 310 322 325 323 320 319 319 316 313 315 312 305 298 302 296 296 302 302 303 303 303 304 304 305 313 315 313 314 312 308 309 303 304 301 302 297 298 300 299 298 295 292 295 296 296 296 297 300 302 303 303 306 315 318 316 317 316 316 315 322 327 329 331 329 329 330 331 331 332 332 333 333 334 335
314 314 314 314 313 313 313 313 312 311 310 310 312 318 318 322 312 312 310 308 295 289 287 292 294 287 288 296 300 300 301 304 303 301 299 302 315 309 313 314 315 310 305 302 301 303 302 299 299 294 294 296 298 299 298 298 300 300 299 296 296 298 300 299 303 307 315 313 314 315 314 316 313 320 326 328 330 328 329 330 331 331 332 332 332 333 333 334
314 314 314 313 312 313 312 312 311 310 309 305 303 300 298 295 290 291 297 297 291 292 293 294 298 296 296 297 297 302 304 303 298 298 300 303 303 310 309 310 310 308 302 297 299 301 301 294 292 292 294 297 300 301 300 302 302 300 300 299 298 298 299 301 302 306 315 313 313 314 316 316 315 318 325 327 328 327 327 328 328 330 330 331 332 332 333 333
314 314 313 312 312 312 312 311 311 310 308 303 300 297 292 293 289 288 294 292 293 294 294 294 295 294 295 298 299 298 296 296 300 298 301 308 302 309 305 306 304 301 301 301 298 303 300 293 293 295 296 296 299 301 301 301 302 301 299 298 298 299 299 302 303 306 310 310 307 313 314 315 316 316 324 327 327 325 326 326 327 329 330 331 331 332 333 334
313 313 312 312 312 311 311 310 310 309 307 301 299 296 296 298 300 301 294 288 294 295 295 295 296 294 297 297 299 299 298 294 296 299 303 304 301 302 302 304 301 299 300 300 299 296 295 292 295 298 298 298 299 302 302 301 301 301 299 298 296 296 299 302 303 306 307 309 303 306 310 313 315 316 322 326 326 327 328 328 328 328 329 329 331 331 332 333
314 313 312 312 311 310 310 309 308 307 301 302 300 297 297 301 301 301 298 291 288 294 295 294 294 293 295 299 299 301 294 293 293 298 301 302 299 300 302 302 299 300 300 300 296 294 291 294 298 299 299 298 299 302 302 302 302 301 299 298 296 297 297 295 302 305 306 306 301 304 306 310 314 315 319 327 327 327 329 329 329 330 329 329 330 331 332 332
314 313 312 311 310 309 310 308 306 301 300 302 302 298 301 302 302 298 294 287 287 291 294 295 297 296 295 295 300 298 295 295 295 296 303 301 296 299 299 302 300 299 297 299 298 296 295 298 301 299 299 299 298 300 301 300 299 302 302 299 299 297 298 298 298 300 303 303 306 305 305 300 305 309 313 322 329 328 328 329 329 330 330 331 332 332 333 332
313 313 312 310 309 309 307 305 297 299 301 301 301 304 302 306 304 299 291 286 286 289 296 297 301 300 297 301 301 295 296 296 296 299 302 301 298 297 295 302 301 298 299 299 299 297 298 303 302 299 298 299 298 298 300 300 298 299 302 302 301 299 298 299 299 300 296 295 301 301 294 295 300 307 312 316 322 324 327 326 327 328 329 330 329 330 332 333
313 312 312 310 310 308 307 297 296 299 300 299 301 302 304 306 302 301 289 282 280 287 295 290 299 295 301 297 299 297 298 293 297 300 304 304 305 298 298 296 302 297 299 298 298 298 299 303 302 299 298 298 298 298 301 302 299 297 301 304 302 299 299 299 298 299 292 292 298 304 296 291 295 303 309 314 317 321 325 326 327 328 329 329 329 330 331 331
312 312 311 309 309 307 298 295 298 300 296 298 301 304 305 306 304 299 290 278 276 291 289 295 295 294 300 298 297 297 284 288 301 300 301 304 299 303 294 292 296 302 302 302 297 296 301 301 300 301 299 297 297 296 301 303 300 298 303 304 301 299 298 298 298 297 294 299 301 301 298 293 291 298 308 314 315 317 321 324 326 327 328 329 330 330 331 331
312 311 309 308 307 306 297 300 301 299 299 303 305 307 308 308 299 294 282 275 275 292 288 290 295 300 298 298 298 294 292 297 292 297 302 303 302 299 296 292 293 296 300 300 291 299 301 299 300 299 298 298 297 299 302 305 302 299 302 303 301 301 300 299 298 296 297 296 294 298 301 295 292 297 304 311 311 313 316 321 324 326 328 329 330 331 331 332
311 310 309 308 307 306 303 301 302 299 305 306 308 309 310 305 295 286 277 275 289 286 300 290 303 297 295 297 294 295 294 297 291 297 302 302 305 299 292 293 294 295 296 298 296 298 302 302 301 302 299 297 301 303 304 305 301 303 301 305 303 302 301 300 296 296 296 294 291 295 297 292 290 295 301 307 310 311 314 319 322 325 327 329 329 330 332 332
311 310 309 307 303 302 300 302 300 305 307 308 309 309 302 295 288 284 278 273 289 282 292 293 292 289 292 290 291 294 291 294 296 297 298 297 301 303 300 299 295 293 293 296 296 300 301 308 307 304 301 301 302 303 305 305 306 302 303 301 299 299 298 300 296 296 294 290 293 296 297 296 290 296 300 302 306 312 315 318 321 324 327 329 330 331 331 332
310 308 308 307 300 303 303 299 303 307 308 309 309 301 293 290 285 276 274 280 288 288 291 289 288 292 289 288 287 292 291 292 294 295 292 298 298 298 297 295 298 293 292 293 294 296 300 302 302 303 307 304 304 301 305 307 307 304 300 299 296 295 295 295 294 294 289 288 294 296 296 297 290 294 299 307 312 315 316 316 318 321 324 327 329 330 332 332
307 307 307 304 304 309 299 298 305 308 308 309 302 294 287 283 280 276 277 293 280 284 284 285 289 288 288 289 288 289 288 290 293 292 289 291 292 291 291 287 289 285 288 288 288 296 295 298 303 305 310 305 301 300 299 304 305 304 299 299 294 288 290 287 289 288 288 288 293 295 296 293 294 299 300 306 311 314 317 318 319 321 323 326 328 330 332 333
306 306 305 307 310 303 303 305 308 307 307 304 297 288 283 277 276 279 280 284 280 288 284 291 287 287 288 287 287 290 291 287 292 291 291 291 292 291 293 291 292 289 283 288 286 290 292 298 300 302 304 307 304 297 295 296 300 301 299 296 293 287 285 283 284 285 285 289 294 294 295 293 294 299 305 304 310 315 317 319 321 322 323 325 328 329 331 332
306 305 300 305 308 308 310 311 306 305 305 300 293 290 283 277 279 292 285 283 284 288 289 286 287 287 288 284 287 289 285 290 290 289 290 288 290 289 290 292 292 289 288 287 285 286 285 288 295 299 297 305 303 302 301 298 299 300 303 300 297 293 287 284 283 285 286 286 292 295 292 288 293 296 303 306 309 314 318 320 321 322 323 325 327 329 330 331
306 303 300 303 307 308 309 306 304 304 298 293 289 283 277 276 281 279 281 282 285 287 286 287 286 285 284 286 288 290 288 284 291 288 287 287 287 289 288 288 291 292 289 284 288 287 286 287 294 300 299 302 302 305 305 301 299 302 304 304 297 296 294 289 287 287 288 289 289 289 291 293 297 300 305 307 307 309 315 318 320 320 322 323 324 326 328 330
302 299 302 302 307 305 305 307 305 302 296 290 285 280 279 280 280 284 283 287 288 285 285 284 286 282 283 283 288 286 292 286 289 287 286 287 290 289 291 290 290 292 288 283 287 281 287 285 294 295 298 298 303 306 305 305 293 298 301 297 299 302 301 295 296 297 292 288 290 290 291 292 294 299 300 301 303 306 310 314 317 319 321 322 323 325 327 329
298 299 298 301 302 305 306 306 306 300 294 288 281 279 281 288 287 285 297 287 287 286 283 279 281 281 280 280 282 285 287 289 287 287 283 288 285 291 291 291 294 293 293 290 285 291 283 283 292 292 293 299 302 302 306 307 302 299 296 300 302 306 304 297 290 289 287 285 286 287 292 291 293 293 301 301 301 304 306 310 315 318 320 320 322 324 326 328
297 296 301 301 302 305 307 307 303 295 291 287 282 293 288 284 290 288 289 288 288 286 282 280 282 285 281 280 279 284 287 284 284 286 283 287 283 295 291 290 294 294 294 295 288 290 290 282 289 294 295 297 302 301 302 307 308 303 300 305 301 292 293 297 293 287 285 284 282 285 290 292 293 295 296 298 300 302 304 309 312 316 318 320 322 324 326 328
296 296 294 298 305 306 306 305 298 293 288 283 282 286 291 287 290 289 291 289 288 284 281 284 281 285 283 281 282 285 286 280 287 284 282 285 282 292 291 292 291 295 295 295 289 290 291 284 288 296 295 297 298 298 294 300 305 308 304 304 303 298 297 293 295 289 290 283 285 287 288 290 294 297 297 300 301 303 304 306 310 315 318 320 322 324 325 326
295 290 288 301 305 306 306 304 297 291 287 282 284 286 290 287 290 291 291 291 287 285 285 283 285 282 284 283 285 282 286 287 285 285 285 288 286 294 291 295 291 293 295 295 291 294 287 293 282 291 296 296 290 295 296 300 298 299 299 298 300 300 298 301 293 293 291 285 283 284 285 288 293 297 299 301 302 303 305 307 310 313 318 321 322 324 325 326
297 291 291 302 305 306 303 300 293 288 284 288 289 289 290 291 293 291 292 291 289 292 287 286 284 282 284 283 283 287 285 286 288 284 286 287 288 283 294 293 294 291 294 293 291 292 288 288 284 288 288 288 291 297 297 297 296 295 299 298 300 298 293 293 291 295 293 290 283 284 286 288 295 301 301 302 303 303 305 308 310 313 316 320 322 324 326 326
290 285 290 303 305 304 298 291 290 291 287 287 287 291 290 300 290 290 291 291 290 289 292 288 288 286 285 285 286 286 285 285 287 287 288 285 290 288 292 296 294 294 291 288 289 294 292 291 288 284 286 289 293 297 299 299 299 297 297 297 301 296 293 294 289 289 293 294 293 289 286 291 299 301 302 303 303 303 304 307 310 312 314 318 322 323 325 327
290 289 298 302 305 300 294 287 291 291 288 291 295 294 294 293 291 292 290 290 289 291 290 289 289 286 288 287 287 286 287 284 287 285 289 289 289 292 295 296 295 294 294 291 293 293 301 288 285 286 288 291 294 296 297 298 297 296 298 298 297 297 296 297 295 290 292 290 292 292 290 295 302 302 302 303 303 303 303 305 309 311 313 316 319 322 324 325
293 292 295 303 304 300 292 284 284 287 290 291 291 292 295 293 292 291 290 291 290 288 289 289 290 293 289 289 287 285 288 280 289 288 286 290 289 295 294 295 296 292 292 291 289 295 288 290 285 280 281 287 292 294 295 297 296 293 291 293 295 297 297 296 294 293 293 291 294 290 288 295 303 306 303 304 303 305 304 302 306 310 313 315 317 320 323 325
295 296 295 299 302 299 289 289 288 287 288 287 288 288 290 292 294 293 292 289 292 290 288 288 291 290 288 289 288 288 289 285 284 290 289 291 290 296 296 296 296 293 295 297 299 299 291 290 284 277 277 280 281 283 284 283 287 291 293 293 294 294 292 293 294 292 289 292 294 291 293 299 302 304 304 305 305 306 305 304 303 305 310 314 317 318 321 324
290 284 292 292 294 294 293 295 291 288 287 287 287 288 290 289 293 296 294 292 294 293 291 293 291 290 288 288 285 286 286 289 286 285 287 287 290 294 294 295 295 294 298 302 303 300 292 292 287 285 282 282 284 285 289 290 289 287 289 291 292 293 295 295 294 291 291 288 292 293 296 299 300 301 302 302 303 303 303 305 305 304 305 308 316 319 320 322
292 285 287 285 291 291 289 290 289 290 286 290 285 289 288 289 291 293 297 290 294 292 291 290 289 287 286 286 285 285 286 286 288 286 286 286 290 292 295 294 295 297 300 299 299 295 291 286 288 287 287 287 289 289 291 292 288 289 289 289 292 293 294 293 292 292 295 290 290 294 296 296 299 302 303 303 300 301 301 303 305 306 306 306 308 317 327 322
284 290 293 293 287 284 286 286 290 289 290 290 289 293 288 287 288 287 292 295 295 294 289 290 290 290 289 287 286 282 284 284 285 283 287 289 288 291 290 293 293 297 298 294 297 292 289 285 288 288 287 289 290 290 291 291 291 290 291 291 291 293 293 291 293 295 296 295 293 296 295 296 299 301 305 307 302 301 302 304 305 306 307 308 309 311 318 321
293 294 293 298 290 292 290 291 292 290 287 290 290 291 287 288 287 290 289 290 292 290 291 284 287 289 289 290 287 282 283 280 280 285 285 285 287 287 286 290 293 297 295 293 293 294 290 285 287 288 287 288 289 290 291 290 290 291 291 292 293 297 299 298 296 297 296 295 299 297 296 297 300 308 310 316 317 316 312 310 311 309 308 308 308 309 316 321
290 292 291 297 295 293 293 292 291 288 285 291 286 288 289 288 287 289 291 290 287 289 294 288 288 290 290 289 287 283 285 286 285 283 287 286 286 287 286 288 289 295 295 291 292 293 290 286 293 289 285 285 288 291 291 291 290 290 294 298 299 302 305 303 301 300 301 296 296 297 296 298 301 311 317 325 325 325 326 327 327 326 314 312 311 312 317 322
299 302 300 293 290 292 294 293 290 288 286 288 286 289 289 289 288 290 290 294 291 288 291 288 290 290 291 289 288 287 289 288 288 288 289 289 284 289 286 288 293 290 292 291 291 291 291 287 290 287 282 282 288 289 289 290 292 291 295 297 298 300 304 306 303 307 304 299 299 297 295 295 309 320 322 325 326 325 325 326 328 329 328 317 317 317 320 323
303 306 304 298 288 294 291 293 291 290 286 289 290 290 289 289 290 291 288 294 295 294 294 292 291 290 288 288 287 288 291 291 291 292 293 293 293 292 292 292 294 291 291 290 293 289 289 288 285 284 281 281 286 289 288 290 295 293 293 295 297 300 305 307 307 307 306 307 298 296 297 313 315 320 323 324 326 326 327 328 328 330 330 325 317 320 322 324
Wind_Speed
19 19 19 20 21 21 20 19 19 20 20 20 19 19 19 19 18 18 17 18 18 18 16 15 14 13 12 11 11 11 9 6 7 3 3 18 7 16 13 9 10 19 15 4 12 14 9 8 8 6 6 6 2 4 4 6 2 3 4 2 5 4 2 4 3 4 1 6 4 7 8 8 6 2 2 2 5 4 7 2 5 6 7 9 13 16 16 16
22 21 21 22 21 21 21 22 22 20 21 20 19 19 19 19 19 18 17 17 17 17 16 15 13 12 12 10 10 9 7 5 8 10 22 3 10 16 16 11 9 16 13 10 17 14 17 9 9 10 8 5 0 3 8 3 4 5 3 2 7 4 5 2 2 1 2 2 8 7 6 8 7 10 5 5 4 8 5 4 7 9 10 14 16 18 17 17
23 24 24 23 22 21 23 22 22 21 21 20 19 19 18 19 19 19 17 16 17 16 17 15 13 11 10 10 8 6 5 4 5 12 18 19 24 17 17 15 11 15 15 16 17 18 21 19 14 11 6 4 3 4 8 3 5 4 1 5 8 5 3 6 6 5 1 6 9 8 6 4 8 6 5 5 8 7 8 8 7 10 13 15 16 17 17 16
25 23 23 23 23 25 23 23 21 22 20 19 19 19 18 19 19 18 18 17 16 16 15 15 12 10 9 8 6 2 1 3 3 6 6 9 13 22 18 18 14 14 6 0 8 8 5 13 13 12 6 3 3 2 9 5 5 4 3 7 4 4 4 7 4 8 0 9 9 6 4 4 8 7 7 9 8 7 5 11 15 15 18 18 19 18 17 16
23 23 23 25 26 26 25 24 23 23 21 21 20 20 20 19 19 19 18 17 15 15 14 13 12 9 7 4 3 3 2 2 0 2 4 9 2 18 19 18 17 12 6 5 8 6 13 14 11 5 4 5 5 4 5 7 6 3 11 5 4 2 2 5 4 7 1 4 7 5 10 5 6 5 7 14 10 10 14 14 9 12 17 20 20 20 17 17
24 25 27 27 26 25 26 25 25 23 21 21 20 20 19 18 19 18 18 17 16 14 13 11 10 8 5 3 2 1 1 0 1 3 6 15 5 16 20 19 19 14 8 9 6 11 13 8 12 7 3 3 8 10 5 9 8 6 5 10 9 8 7 3 2 3 5 3 7 9 6 8 9 6 8 14 13 1 2 9 10 15 15 18 17 18 18 18
27 26 26 25 26 26 28 28 25 25 23 23 23 20 18 18 18 17 17 16 15 12 10 9 7 8 10 7 2 1 2 9 3 7 14 14 3 15 20 21 18 13 11 10 6 12 12 13 9 8 5 3 4 8 1 9 8 6 7 2 8 8 14 13 10 10 8 6 7 5 7 10 9 7 7 12 5 4 10 12 13 14 14 16 18 18 19 19
26 27 27 26 28 29 27 25 24 23 23 22 21 19 18 18 18 18 17 15 13 12 8 5 4 2 4 1 0 2 1 8 8 9 19 8 0 15 20 13 14 13 14 15 13 13 15 16 12 6 5 10 3 9 2 7 8 10 11 12 9 5 9 5 5 5 6 7 3 8 10 10 15 8 9 11 8 7 12 14 15 15 15 15 17 18 16 15
27 26 26 28 27 26 27 27 27 26 24 23 22 20 18 17 17 17 16 14 11 8 7 5 5 5 3 0 1 5 7 7 3 8 7 7 6 11 15 10 10 16 13 11 8 10 14 11 9 11 6 9 3 10 5 5 7 12 19 2 4 6 4 4 5 6 7 3 6 6 9 7 9 6 9 10 8 9 14 16 16 16 16 17 17 18 18 17
26 26 25 25 26 27 28 26 25 26 24 24 23 21 19 17 15 15 15 13 10 6 2 2 4 5 4 1 1 1 6 6 5 10 8 9 7 9 8 9 16 12 13 12 7 9 12 13 17 7 7 4 5 5 8 8 4 5 10 8 11 13 8 7 8 6 5 4 7 8 7 6 6 5 4 6 10 13 14 16 16 17 18 17 16 15 16 16
26 27 26 26 26 27 27 26 27 25 24 24 24 20 18 16 15 15 14 10 7 4 5 6 7 5 0 0 1 6 5 3 3 8 7 4 8 8 8 8 15 12 13 10 12 13 5 10 5 4 1 5 5 4 8 5 6 8 2 3 8 8 9 9 7 10 2 4 7 9 7 3 7 4 6 9 12 16 16 16 17 16 17 16 17 15 14 14
26 27 27 27 26 27 27 25 26 25 24 24 23 19 17 17 16 14 10 7 2 5 5 9 10 3 1 2 6 9 3 2 6 9 5 2 3 7 4 6 11 13 16 13 12 11 6 9 9 7 5 5 5 1 7 9 4 1 2 7 9 4 8 6 8 6 6 6 7 5 0 3 7 11 9 11 15 16 17 16 17 17 16 15 16 14 13 13
25 26 28 26 26 26 26 26 26 25 24 23 21 17 17 17 15 11 6 2 4 7 9 11 8 0 1 3 9 10 11 11 11 11 11 1 2 3 2 7 7 2 2 8 13 11 6 9 10 11 3 6 5 6 2 5 8 6 7 6 10 6 9 13 5 5 6 4 7 8 5 6 11 12 5 12 15 15 15 15 15 13 14 13 15 14 13 12
25 26 27 27 26 26 26 25 26 25 24 22 21 19 17 16 12 8 3 7 9 10 11 11 4 1 1 6 6 4 5 4 6 6 6 3 2 2 3 6 5 1 1 3 3 2 1 1 6 5 1 2 3 3 2 2 1 5 5 3 6 2 6 2 5 6 7 5 10 11 8 6 6 8 8 14 17 18 16 16 15 14 14 14 14 14 14 15
24 26 27 27 27 25 25 24 24 23 24 22 23 19 15 14 10 3 9 8 10 12 12 8 2 3 2 7 6 10 10 1 2 6 4 8 3 2 2 7 8 3 1 2 1 3 2 2 3 2 4 1 2 3 4 1 2 1 5 6 2 6 8 7 2 7 9 1 10 10 8 10 6 7 11 14 17 18 16 15 16 15 14 15 14 15 14 15
24 25 27 28 26 25 24 23 22 22 23 23 23 21 14 10 1 9 8 6 12 12 7 3 0 1 2 6 3 7 1 4 13 10 2 5 3 4 3 7 7 4 0 2 1 1 4 0 4 4 2 0 2 2 2 4 3 2 5 2 4 6 10 6 4 9 11 3 6 13 5 1 6 6 11 14 17 17 16 16 16 16 17 16 15 14 14 13
24 25 27 26 24 25 24 22 22 21 23 22 21 20 10 3 6 8 6 7 5 3 1 1 2 1 1 2 5 5 7 10 5 5 7 4 5 6 2 6 4 7 3 3 2 4 3 3 0 1 1 3 3 3 3 6 5 4 2 6 3 7 5 6 4 4 6 9 4 11 9 6 2 11 13 13 17 16 14 17 17 16 15 16 15 14 14 15
25 25 25 23 26 24 23 21 21 21 23 24 19 14 5 3 10 9 4 2 2 1 2 1 3 1 5 5 10 12 13 10 11 12 11 11 6 7 5 3 3 7 6 2 1 2 2 5 2 5 1 6 4 7 10 14 12 7 4 4 4 1 6 5 4 3 7 6 9 11 13 12 1 7 14 16 16 17 16 17 18 17 16 15 14 15 16 16
26 26 22 25 25 24 23 22 21 22 21 21 12 5 4 6 2 0 0 1 1 4 4 5 5 6 2 15 15 11 7 12 11 5 5 5 3 2 3 3 10 12 6 7 3 7 2 1 3 4 11 10 14 15 14 2 6 6 5 3 2 6 6 5 4 2 6 4 8 10 12 13 4 8 11 13 16 17 16 13 13 14 15 15 15 15 15 16
26 24 24 25 27 22 23 21 20 21 18 12 10 4 2 5 5 1 4 5 5 3 3 7 1 3 7 10 9 11 12 6 5 3 5 2 2 3 2 2 3 3 9 9 5 8 5 8 12 16 17 17 12 10 5 5 0 2 3 5 6 5 5 4 3 2 3 3 8 9 12 12 10 11 13 15 15 13 10 13 13 14 15 15 15 16 17 18
23 23 24 25 26 23 21 21 20 19 17 5 6 5 6 7 6 7 9 6 4 2 4 5 4 5 6 10 11 9 13 5 2 3 4 1 2 2 2 2 4 6 8 8 8 2 8 9 14 16 12 6 7 6 5 4 8 2 2 1 5 5 8 3 3 1 2 3 3 7 10 14 11 9 13 12 14 15 15 16 16 17 17 16 18 18 18 18
23 25 25 26 26 25 22 21 20 16 11 1 4 6 2 3 3 4 0 6 8 2 2 7 2 3 5 8 8 5 1 3 10 5 5 2 1 4 1 5 6 9 5 6 6 5 10 16 16 13 5 4 4 7 8 10 10 9 5 3 3 6 2 5 5 2 1 2 7 3 7 11 11 9 10 14 17 17 18 20 21 20 19 16 16 18 16 12
23 23 26 25 26 25 23 19 18 11 5 6 4 3 2 1 3 2 0 1 7 2 3 2 1 3 6 6 1 3 3 1 3 9 8 4 3 3 3 6 7 5 6 9 12 8 8 14 17 6 7 8 5 7 8 8 9 9 8 7 8 2 3 5 5 0 1 5 2 4 8 8 9 4 11 16 18 16 17 19 18 19 21 20 21 20 18 18
24 23 26 26 26 26 20 20 13 3 3 0 1 3 3 2 0 3 2 1 4 8 1 2 0 2 5 7 2 5 1 3 1 11 5 3 4 5 2 6 7 6 10 11 12 12 13 4 7 6 7 7 8 8 9 9 10 9 10 7 8 5 4 4 4 2 2 3 3 0 2 4 3 4 6 11 16 15 15 15 14 14 17 20 19 16 17 20
26 26 24 26 26 25 23 15 5 3 3 0 2 2 3 1 2 2 3 2 1 4 3 2 2 0 5 2 3 3 1 2 4 4 2 2 4 4 2 2 4 12 7 9 8 10 10 11 5 15 13 11 10 10 12 8 8 7 9 11 7 5 5 2 3 5 6 5 1 7 2 6 4 9 13 11 9 12 10 13 16 16 17 14 12 15 16 16
28 27 24 26 25 24 19 2 3 3 5 1 1 2 2 1 5 3 3 3 2 2 2 2 1 1 1 6 11 4 1 2 3 4 4 2 4 4 1 4 3 8 9 6 10 5 8 5 8 13 16 13 13 11 9 8 9 6 12 10 8 5 4 2 3 0 3 5 2 1 8 6 5 5 9 9 12 17 12 15 18 17 15 14 16 16 17 18
28 26 26 25 20 19 7 3 2 2 5 4 5 6 2 3 4 3 1 3 2 1 1 3 3 1 3 9 9 7 3 7 12 2 7 8 5 1 3 6 5 1 4 2 1 9 5 10 6 9 11 14 12 12 9 13 8 13 3 9 6 6 5 4 3 4 4 3 4 1 2 3 6 7 5 9 14 17 15 17 18 17 15 16 17 17 17 18
28 26 28 26 22 7 2 0 5 4 3 7 8 8 5 3 4 3 2 1 1 2 2 4 2 4 5 11 7 8 3 6 7 3 8 14 1 0 4 3 4 4 3 7 14 1 12 10 12 11 8 10 15 15 10 13 12 3 6 10 10 9 8 6 4 4 2 2 11 1 1 2 5 7 4 7 9 13 17 19 18 18 18 19 19 18 18 19
27 26 28 26 19 2 3 1 1 4 8 9 10 7 6 2 3 4 3 1 1 1 5 2 1 1 6 5 5 8 3 4 4 7 14 7 4 4 1 6 3 7 11 7 10 1 6 8 9 10 8 11 9 8 11 12 11 6 4 11 7 7 5 8 6 4 4 5 13 9 5 5 7 4 3 3 9 15 15 17 18 19 20 20 19 18 19 17
28 27 25 25 7 1 2 1 1 4 6 9 10 7 2 4 2 2 1 3 2 2 3 2 3 8 5 6 2 10 6 3 5 7 4 3 11 10 3 2 2 2 6 6 7 7 3 4 12 11 13 6 4 5 9 12 13 3 6 2 3 6 6 3 5 4 2 12 15 8 6 6 8 7 9 9 8 9 8 11 13 14 17 19 19 20 18 17
27 28 24 18 3 2 3 7 13 10 9 8 10 2 4 6 2 2 2 1 2 1 2 4 6 5 9 10 9 10 3 5 12 11 10 10 13 15 11 6 8 3 1 5 6 4 6 5 6 4 9 5 6 4 6 10 12 6 4 5 1 2 2 3 1 4 8 14 8 6 8 9 12 8 7 10 5 10 13 15 16 16 17 17 16 17 17 17
29 27 27 10 3 3 6 7 12 11 9 9 5 5 4 2 4 1 2 1 2 3 4 4 4 3 8 3 5 11 8 5 10 10 11 5 9 12 11 7 5 2 10 5 7 2 8 11 3 3 9 14 5 7 6 9 10 11 5 7 10 3 3 5 3 9 14 10 2 6 7 3 19 13 4 8 10 11 14 14 15 18 19 20 21 21 18 18
29 26 24 4 2 1 2 5 7 8 7 7 4 4 2 2 2 1 2 3 1 1 3 1 3 4 6 3 6 9 4 7 10 8 8 5 4 8 9 9 5 2 4 3 3 2 7 4 9 8 2 9 11 13 6 7 10 11 11 8 10 7 6 7 6 2 4 2 3 3 5 12 2 8 15 13 12 12 13 15 15 17 21 21 20 19 17 17
29 24 9 3 4 5 6 6 6 7 9 5 6 7 5 2 2 2 1 1 1 1 0 0 2 3 7 5 3 7 6 2 10 10 7 5 3 1 3 10 13 10 5 2 4 4 5 8 11 11 7 6 12 13 11 6 8 10 8 10 10 7 4 7 4 10 7 5 6 6 5 6 10 7 6 15 16 14 12 14 15 15 16 19 19 18 19 18
31 14 6 4 1 4 6 5 5 6 4 5 7 5 2 2 1 1 1 2 2 1 1 2 1 3 3 3 2 4 3 4 7 10 5 6 6 4 5 6 11 7 3 3 2 2 5 6 3 3 6 6 10 7 7 6 6 9 10 7 6 14 6 3 5 3 3 3 6 4 8 5 7 3 4 3 11 16 16 16 15 15 14 11 9 12 15 16
17 9 3 1 3 7 8 7 5 5 2 5 3 2 1 3 0 1 1 2 0 1 2 3 3 4 1 3 1 6 1 1 7 6 4 4 4 5 5 5 7 12 7 3 2 2 4 5 3 13 14 7 8 7 9 11 11 7 9 14 11 7 5 2 3 1 1 2 15 4 4 5 7 7 6 4 5 10 13 16 15 15 13 9 12 15 17 17
10 8 5 7 8 14 12 9 6 1 2 5 3 1 4 1 2 2 2 1 1 2 2 3 3 2 3 3 2 5 5 2 5 4 4 3 3 4 3 6 10 8 9 2 3 3 2 11 16 7 10 5 6 12 7 14 6 6 10 10 4 5 3 4 7 1 5 9 7 2 12 2 6 12 2 4 5 10 10 13 14 15 10 11 14 15 17 18
8 4 3 3 12 14 14 12 3 3 4 4 2 3 1 2 1 1 0 0 2 3 2 2 1 4 1 1 3 4 4 3 5 3 5 3 2 5 5 2 7 8 8 8 1 1 3 6 7 3 8 7 14 5 6 11 11 10 9 9 11 7 11 9 3 10 9 8 3 3 2 6 11 9 2 9 8 10 10 11 11 12 9 13 14 16 17 19
2 1 2 5 14 13 14 10 5 5 4 5 2 0 2 0 1 1 2 1 1 3 2 0 1 1 1 0 1 2 1 2 2 2 3 2 3 2 7 3 4 8 9 9 1 2 0 2 7 2 5 11 9 2 9 9 10 13 8 11 7 4 9 9 10 2 2 5 1 8 2 8 6 6 9 12 12 12 11 9 11 14 14 14 13 13 15 16
6 2 2 7 16 14 14 4 7 7 6 4 0 0 1 2 1 3 4 1 1 2 0 1 1 0 0 1 0 1 2 1 1 1 1 1 2 4 7 5 6 8 9 11 4 2 2 1 2 8 9 6 4 4 11 9 10 10 7 6 7 5 1 5 1 5 6 4 4 2 5 3 6 6 10 12 12 12 13 13 13 13 13 14 14 14 14 16
3 1 3 8 17 14 7 10 9 6 3 1 1 2 4 2 4 3 6 4 1 1 2 1 2 1 1 1 2 1 1 1 1 0 2 3 2 2 6 7 6 9 7 7 4 2 1 1 2 7 10 4 9 4 7 8 8 4 7 9 8 8 4 10 9 1 6 4 4 2 10 2 8 4 10 12 12 13 13 15 14 14 14 13 13 14 14 15
3 4 5 15 17 13 6 8 6 2 3 4 5 5 5 9 3 6 3 3 4 0 1 2 0 1 1 0 0 1 1 2 2 1 1 4 0 1 5 8 5 6 6 5 4 5 2 2 1 7 6 10 15 21 16 12 9 8 4 6 6 4 4 5 9 6 2 7 1 2 3 9 7 6 9 10 11 11 12 12 13 13 14 15 15 15 15 17
5 2 6 11 16 8 8 6 2 6 3 3 7 3 3 3 2 4 3 3 1 1 0 2 1 1 1 1 1 0 0 2 3 4 2 1 2 2 3 6 5 6 7 4 6 3 6 1 2 7 7 11 16 17 15 8 7 5 3 2 4 6 5 8 5 5 7 1 6 8 10 11 3 5 9 10 7 8 7 11 14 11 9 10 13 14 14 13
2 3 6 7 16 6 13 6 6 6 5 7 6 4 5 2 5 7 3 6 3 3 1 0 1 0 1 0 1 0 0 2 0 2 2 1 3 2 3 4 6 5 5 4 4 6 4 2 2 3 4 6 9 2 4 4 6 4 4 6 6 10 7 4 4 2 5 9 8 7 10 15 1 1 3 2 4 3 4 5 7 11 11 11 12 13 12 14
4 3 3 6 10 11 8 2 3 3 6 7 6 8 10 3 4 3 3 3 4 1 2 2 1 0 3 2 2 1 1 3 2 2 3 1 3 0 2 2 4 7 6 9 11 8 6 6 1 3 5 8 9 11 3 6 8 9 6 8 6 8 11 6 10 3 7 5 8 8 11 9 2 2 2 1 2 4 4 3 4 6 7 5 6 10 12 13
4 4 3 3 4 5 6 3 4 2 3 7 6 4 5 7 4 4 6 2 8 6 1 1 5 3 5 7 4 2 2 1 3 2 0 2 1 1 3 3 5 7 11 12 10 4 3 2 5 4 4 7 2 1 3 5 6 4 13 14 15 11 5 4 4 4 12 3 8 7 10 13 3 5 4 4 3 5 5 4 6 7 8 9 7 11 13 14
1 3 3 7 3 5 4 2 5 4 4 4 2 5 6 8 6 4 8 3 8 7 4 3 3 4 3 4 3 4 4 3 2 3 5 5 2 3 3 5 5 9 9 7 8 6 3 4 6 5 8 11 9 10 10 7 12 14 11 15 14 11 9 7 4 8 3 7 11 5 5 5 15 10 6 4 7 6 6 6 6 7 10 12 12 11 14 14
2 1 1 1 1 5 7 4 6 6 5 2 1 3 6 6 6 5 5 2 6 5 5 3 4 3 2 1 3 3 2 3 2 4 3 3 3 2 4 2 5 3 2 4 7 3 3 4 3 5 7 10 10 11 12 9 10 12 12 14 16 17 11 10 8 8 3 11 14 3 3 5 15 4 6 1 3 6 9 10 10 8 9 9 11 12 15 17
1 0 1 2 1 1 2 6 6 3 5 4 1 5 6 6 7 5 4 6 4 2 3 3 5 8 8 5 0 3 3 3 3 2 1 3 3 4 3 2 3 1 2 3 6 3 3 5 6 6 9 9 11 13 13 11 7 8 10 12 12 13 14 11 13 11 11 9 4 6 8 13 2 7 8 6 5 5 7 6 6 7 12 12 12 14 15 16
2 2 2 1 2 3 3 2 1 3 4 3 2 2 3 6 7 7 4 2 5 3 3 5 9 10 9 8 2 2 4 4 7 8 2 4 7 3 4 4 1 0 1 1 3 5 4 5 1 0 3 9 11 8 8 8 6 6 4 6 8 12 9 11 10 7 5 7 9 12 7 10 2 5 5 6 4 3 6 11 10 9 10 13 14 15 15 16
1 1 1 4 3 2 1 1 1 2 3 2 0 3 6 4 6 7 9 6 6 5 5 8 9 11 9 6 7 8 10 8 8 10 8 7 11 4 3 2 4 3 5 2 1 3 3 4 4 1 3 7 4 3 5 5 8 8 2 10 14 14 9 8 5 5 1 4 5 6 6 6 8 11 6 6 9 13 11 12 13 11 12 10 11 11 13 14
1 1 1 0 2 2 3 1 1 1 2 2 3 6 4 6 7 8 7 1 2 3 4 6 8 7 9 7 9 10 7 7 10 12 12 12 11 12 11 9 7 6 3 4 4 4 3 3 3 2 1 6 6 3 8 9 3 2 3 6 9 8 8 4 7 11 10 4 1 2 2 5 9 8 7 10 10 12 13 12 13 15 15 11 9 8 11 13
Wind_Direction
344 341 339 337 339 339 337 333 330 330 330 329 324 321 316 315 314 315 316 315 312 312 313 316 316 316 317 318 320 315 318 318 305 287 219 242 155 209 168 189 180 197 206 136 125 125 131 130 125 154 133 134 214 160 191 220 254 155 203 218 258 226 253 231 212 194 147 136 188 173 176 128 136 160 132 117 63 108 151 76 105 39 70 106 121 126 138 142
344 343 339 342 339 337 334 337 336 332 332 328 323 319 316 313 313 313 313 311 310 307 308 312 315 315 317 317 321 321 324 296 281 256 239 197 182 195 203 190 151 180 171 151 152 155 139 155 142 145 138 162 265 180 151 218 190 200 185 181 246 189 229 216 264 262 147 208 172 180 169 154 157 144 210 120 141 143 137 107 104 90 92 111 124 137 145 150
345 344 343 341 338 336 337 336 336 335 333 329 323 318 315 313 313 309 308 307 305 305 304 307 313 314 315 319 314 341 12 305 262 255 265 245 233 194 195 189 161 167 170 167 173 159 159 165 151 135 156 122 197 174 173 197 158 241 223 220 243 217 270 281 273 271 307 136 159 165 187 162 148 137 173 138 154 165 168 144 120 127 134 136 137 145 150 155
346 343 340 336 336 339 338 336 334 336 332 327 321 316 313 313 311 308 304 303 301 301 302 304 309 314 314 316 333 323 199 258 292 253 244 288 214 205 186 181 163 163 161 34 164 155 111 135 145 140 137 144 178 171 173 194 176 168 222 214 234 231 243 268 268 272 199 148 159 158 165 134 164 145 158 137 129 203 207 183 167 165 152 147 150 151 156 159
344 340 337 338 338 338 337 337 336 335 330 326 318 316 316 309 307 302 300 299 297 296 299 303 305 306 313 296 48 72 147 17 158 259 257 16 159 184 188 172 162 149 156 125 105 108 137 143 141 134 121 160 160 178 227 199 206 133 226 238 271 345 228 274 282 270 124 131 133 149 160 184 128 129 160 156 159 195 203 188 162 148 151 150 156 159 159 163
342 343 343 340 337 335 336 336 337 332 326 323 317 316 312 309 308 301 298 296 294 293 298 303 302 303 300 66 71 54 31 258 348 312 301 343 168 172 178 169 155 141 137 147 143 137 128 146 140 153 153 129 177 183 201 198 192 237 252 240 237 256 280 263 307 339 111 128 147 166 185 119 158 179 181 173 191 197 94 146 146 151 156 154 152 157 163 165
346 342 340 337 335 335 338 338 333 331 327 322 320 312 313 308 302 299 296 293 292 292 296 300 299 286 281 276 332 59 100 280 348 278 315 316 235 166 169 165 147 141 147 153 149 143 154 152 157 166 139 145 222 209 191 180 211 240 254 211 242 222 240 259 278 282 284 145 196 176 149 158 164 166 187 196 176 141 133 135 141 142 146 151 157 168 170 171
343 343 341 338 337 337 337 333 329 329 327 322 317 313 313 309 305 298 296 294 291 296 300 287 291 14 27 55 122 0 41 250 262 301 321 332 40 155 158 153 147 149 154 172 167 157 151 156 171 143 166 172 198 189 191 172 200 220 250 238 257 264 258 294 285 279 260 235 132 148 165 189 182 169 148 213 179 134 132 130 139 144 151 161 162 167 170 171
342 340 340 339 337 334 335 334 333 330 326 319 317 316 313 309 305 300 297 298 297 295 291 275 251 253 242 89 83 336 266 232 225 318 348 43 88 130 144 146 166 158 164 165 185 157 145 186 156 171 194 177 211 183 194 160 222 213 230 223 271 248 278 263 275 264 248 239 155 163 204 200 187 109 187 188 167 142 134 136 143 148 156 165 171 170 171 173
340 337 337 336 334 335 335 333 329 329 324 322 318 317 315 313 306 302 304 299 300 303 290 195 160 147 93 68 48 340 266 157 51 17 26 68 89 130 173 157 161 160 149 177 172 168 175 178 174 171 116 191 162 200 168 202 221 185 248 258 268 269 282 273 264 267 250 226 168 191 202 211 193 163 246 168 155 138 137 144 151 155 165 170 171 175 175 174
339 336 333 335 335 335 334 332 330 327 324 320 316 316 315 316 314 309 307 305 300 296 215 182 175 156 93 129 130 230 262 68 27 21 16 90 120 154 185 186 169 167 157 160 186 190 176 154 146 125 76 222 164 234 176 220 244 274 254 273 253 260 254 262 262 256 242 268 192 191 214 167 188 222 226 163 150 148 145 151 159 163 167 171 173 175 176 180
337 335 334 333 334 334 333 330 330 326 324 319 315 314 317 318 319 311 307 315 290 190 162 164 166 177 98 112 197 226 336 346 331 324 340 281 191 189 200 181 189 172 156 168 197 199 175 159 148 167 183 131 181 108 254 245 248 250 301 280 273 290 280 240 241 245 185 250 188 169 127 159 176 218 210 157 149 152 152 159 163 169 170 169 172 174 179 182
336 334 333 332 333 333 332 330 330 327 322 316 312 317 321 322 315 314 310 356 152 153 154 153 155 101 111 315 225 252 292 306 318 326 317 257 244 184 167 169 198 276 200 172 187 194 175 165 169 178 208 142 166 150 264 173 224 245 250 247 291 296 285 267 214 229 194 228 167 131 231 206 205 216 155 155 152 150 151 162 168 169 170 170 173 179 180 182
335 334 331 332 332 333 330 331 329 326 320 317 314 321 325 321 315 315 88 147 141 145 156 147 129 113 99 246 280 261 268 265 312 330 326 11 63 270 130 147 190 312 13 56 59 87 197 254 178 189 46 146 194 307 4 3 96 183 212 195 241 311 265 283 171 186 202 184 167 161 230 243 220 213 173 159 155 156 164 169 172 169 171 173 177 180 183 187
334 333 331 330 332 332 331 331 328 323 320 317 318 322 324 319 314 101 128 124 142 149 148 128 58 87 35 270 253 274 266 230 6 345 292 18 358 1 167 143 184 198 84 52 13 105 120 84 133 196 237 250 297 8 329 21 343 236 137 230 216 182 267 265 228 164 197 247 174 164 238 228 219 205 173 165 164 162 165 172 174 173 175 176 179 183 185 189
334 333 332 330 330 332 330 330 329 323 321 315 319 320 320 307 56 134 153 147 154 144 118 79 177 135 340 328 300 305 359 347 326 320 251 4 313 277 202 174 161 177 184 319 24 113 137 59 182 205 252 46 194 153 321 356 307 312 181 252 198 158 238 310 242 196 202 162 189 177 224 123 254 180 176 170 167 170 167 173 176 178 178 178 182 185 186 183
333 334 329 325 329 332 329 328 328 327 321 317 320 317 331 277 123 123 136 132 135 116 78 107 155 162 78 217 239 353 339 317 299 309 313 276 243 236 128 140 161 159 122 347 39 103 123 155 275 258 225 203 165 120 195 260 276 272 219 204 192 178 216 238 292 282 216 161 198 208 220 215 224 166 173 176 172 172 172 176 179 179 181 183 183 185 185 189
329 332 328 322 329 333 331 330 331 329 325 319 325 296 302 106 117 112 82 35 53 26 5 311 126 115 280 340 355 318 305 304 322 309 300 286 231 209 177 165 109 125 116 55 313 134 167 185 143 219 155 209 168 182 184 217 203 197 203 189 232 249 214 211 156 260 160 201 184 202 221 234 176 175 170 179 179 174 181 179 179 180 182 182 185 188 190 191
330 330 328 330 329 335 334 331 333 333 329 319 324 327 86 121 16 338 329 295 57 1 21 347 30 58 264 301 298 290 298 301 301 297 310 351 27 128 186 82 125 128 144 154 254 148 161 103 120 214 217 199 208 200 202 103 144 194 160 182 159 188 237 217 232 260 157 191 212 193 211 230 185 188 186 179 179 182 186 178 178 183 183 184 187 191 192 195
328 330 334 331 330 333 334 333 332 332 336 340 350 13 358 17 8 337 340 18 91 159 209 271 117 257 300 292 297 293 297 277 357 299 295 288 40 59 172 126 118 110 134 178 163 193 143 184 196 204 210 208 207 206 193 243 72 123 170 169 206 209 259 274 240 229 157 158 219 213 218 222 208 187 188 185 183 187 170 176 185 186 186 188 192 194 197 198
326 331 333 333 329 334 334 333 333 330 338 343 330 38 46 348 6 335 347 296 271 177 229 254 204 211 247 294 301 332 353 337 44 296 297 258 127 113 214 137 143 167 187 158 149 203 156 199 219 218 214 200 205 186 181 245 276 232 210 204 232 200 234 234 250 134 197 173 271 226 226 231 216 192 188 183 179 185 185 186 188 189 191 192 193 195 199 202
327 333 336 336 331 333 334 331 331 329 319 28 31 65 122 102 182 215 46 331 317 248 209 263 246 260 277 256 262 280 147 301 328 327 304 6 172 152 240 193 173 192 161 139 107 150 201 213 219 213 166 175 178 175 179 202 229 261 237 229 265 266 271 283 269 212 230 151 259 226 216 239 234 197 185 180 188 195 192 187 188 186 190 194 197 199 196 185
329 332 336 334 333 331 332 325 325 323 13 27 27 65 97 202 270 303 123 277 276 257 294 344 2 286 304 291 282 106 6 300 302 318 338 15 360 213 171 193 201 172 164 175 179 163 213 231 227 163 166 173 195 175 176 190 210 225 237 233 228 233 174 266 264 46 210 176 238 221 216 234 239 205 194 192 190 199 199 196 192 188 187 193 196 193 190 192
331 332 335 336 333 330 326 322 310 14 38 74 221 101 170 147 240 79 89 220 309 319 209 236 12 230 318 333 329 352 310 275 116 329 328 26 337 321 306 199 197 197 204 190 196 195 209 336 195 165 170 186 197 192 177 186 211 216 221 224 229 205 225 190 253 325 278 294 233 122 278 296 241 182 217 217 204 198 200 200 201 200 201 199 199 192 188 189
331 334 335 336 333 327 322 324 47 334 302 133 218 232 135 151 217 139 97 350 20 288 246 314 165 89 312 259 284 327 274 288 225 257 271 34 329 349 243 224 186 218 205 183 207 226 245 255 130 161 191 196 204 207 204 177 218 228 229 218 214 193 228 302 322 13 13 333 309 158 276 266 257 212 200 199 195 214 204 198 202 202 203 197 192 199 201 200
333 334 335 338 331 327 317 10 345 334 3 326 4 117 155 257 217 151 98 81 326 266 343 355 47 323 303 349 334 315 261 293 219 276 299 281 251 198 315 286 208 233 197 171 204 222 230 221 159 183 183 193 204 216 204 179 217 210 229 196 197 185 178 135 273 69 270 240 275 106 211 270 317 252 217 193 192 206 194 200 207 205 202 194 199 198 196 197
335 333 335 337 335 332 13 348 303 338 10 325 318 327 309 271 204 141 54 354 15 8 67 289 9 359 18 337 326 338 79 307 319 308 350 338 2 216 192 253 321 213 154 162 115 225 172 206 181 199 189 184 197 214 200 184 189 233 139 165 148 180 182 175 196 201 243 262 264 211 142 215 293 274 230 201 193 204 200 206 207 205 200 200 204 200 198 197
334 333 337 338 339 359 156 287 355 9 323 284 302 308 313 256 104 59 84 18 282 355 14 318 38 294 11 318 6 11 232 315 339 312 344 310 347 317 161 225 203 260 220 171 221 44 167 206 186 192 196 195 203 205 184 186 199 214 149 140 175 185 198 199 195 235 231 8 276 191 179 249 253 265 261 179 209 216 206 206 207 205 201 205 205 202 201 199
336 335 336 338 337 56 133 122 138 326 311 303 302 315 311 82 99 98 109 147 100 55 146 101 298 16 337 331 42 1 323 19 349 299 308 285 1 190 127 229 201 254 271 237 233 265 202 202 181 186 190 213 212 195 190 183 212 226 171 158 164 174 183 189 192 198 256 246 256 241 170 228 272 254 264 227 200 215 213 213 211 203 202 205 204 204 203 200
335 336 335 336 336 5 10 117 200 265 286 306 304 315 57 64 36 55 36 225 60 306 5 287 9 323 333 357 360 3 0 350 332 307 304 323 356 26 309 71 57 284 278 258 246 239 250 192 170 188 210 196 168 206 181 189 210 144 130 129 136 161 179 173 176 158 211 245 242 230 186 185 268 222 196 205 215 200 205 223 219 213 212 209 206 201 199 197
335 335 333 341 45 306 299 358 326 330 316 308 314 344 87 38 118 102 210 239 52 248 16 2 360 345 4 26 1 352 333 341 346 353 347 353 18 27 16 26 5 346 279 296 267 247 243 263 185 211 187 152 164 190 191 191 195 161 162 163 86 301 45 162 157 148 210 246 235 209 199 177 242 234 217 216 202 190 200 212 213 209 208 210 208 207 204 200
332 331 328 331 235 309 36 319 305 315 318 311 336 35 72 250 9 121 218 12 98 314 57 328 346 8 354 15 47 353 347 329 1 357 357 347 39 44 25 65 335 40 235 231 270 203 237 226 221 271 182 176 162 179 220 193 195 195 147 149 180 230 152 234 115 209 216 228 228 190 153 252 232 244 208 213 217 212 207 212 212 207 208 206 206 203 201 199
327 329 319 275 220 282 222 254 292 303 319 331 19 49 67 106 243 261 322 344 206 66 294 72 306 8 352 7 27 356 322 24 347 349 350 326 54 88 68 52 11 81 206 6 303 243 249 219 214 232 258 197 169 195 164 199 198 192 190 175 177 183 192 206 216 319 299 276 242 136 165 236 46 272 219 211 221 221 213 218 217 210 209 206 205 201 199 200
321 325 319 267 236 224 274 295 304 332 347 5 52 21 50 71 244 120 324 254 255 352 205 331 319 9 26 27 10 18 349 3 15 334 355 331 4 10 35 38 29 21 62 308 44 348 225 216 221 200 224 168 203 202 183 177 174 197 194 184 199 190 172 201 180 208 218 208 241 177 151 229 167 243 186 207 204 216 223 223 226 223 215 209 203 196 196 198
317 305 276 304 310 245 248 305 326 340 11 42 46 77 108 231 231 220 265 301 290 13 325 334 359 48 354 23 347 49 62 303 2 337 351 10 30 22 18 10 24 30 324 84 314 40 251 279 326 321 338 311 207 208 170 147 178 197 187 193 201 216 114 170 203 164 226 247 264 216 202 177 192 249 291 221 193 202 215 225 226 226 221 205 188 192 197 201
319 335 341 329 318 326 339 340 340 350 46 61 69 42 147 181 253 142 243 186 322 99 302 4 22 48 321 351 331 357 304 95 335 341 325 28 27 50 33 10 27 30 28 68 327 25 327 268 331 330 327 297 261 196 196 160 204 182 164 205 211 94 149 241 293 256 95 113 246 102 279 280 306 317 256 207 175 212 212 221 222 225 220 178 185 190 195 198
337 340 14 322 343 337 339 339 332 12 77 97 95 258 203 272 191 162 342 93 226 134 58 57 330 53 335 331 357 343 337 40 344 353 342 351 35 47 46 72 28 28 16 29 316 226 340 284 295 314 303 304 16 324 238 189 141 131 190 201 117 136 152 178 217 190 204 218 253 145 215 214 163 251 184 179 183 216 210 223 224 224 206 178 194 192 191 195
320 327 255 324 344 332 331 328 325 95 92 90 130 222 357 71 301 114 278 53 30 43 89 104 254 94 313 61 309 356 309 69 327 19 327 344 108 86 65 351 42 23 351 337 188 256 28 308 293 214 244 299 336 331 284 214 170 189 204 136 166 159 204 199 189 219 216 229 280 289 213 222 199 230 188 192 197 219 223 222 225 229 205 198 198 196 194 194
274 332 18 353 336 335 324 338 70 74 77 69 322 89 342 240 307 62 296 252 91 126 82 207 162 299 108 89 252 292 343 37 9 14 14 8 29 67 72 340 360 13 345 331 311 267 192 172 298 306 48 319 300 223 220 208 208 208 108 180 163 149 214 174 199 166 122 257 246 271 141 237 213 203 183 199 196 203 207 216 224 221 209 202 201 195 191 190
1 32 326 343 336 337 326 335 59 43 58 92 281 275 291 285 345 319 346 91 345 83 239 152 234 95 21 215 172 342 304 279 90 285 113 323 325 49 44 47 8 347 342 312 280 310 283 199 255 289 334 344 286 206 217 200 196 201 188 180 189 218 246 178 325 192 196 198 209 254 269 272 248 208 180 193 199 199 191 205 215 218 213 208 202 193 190 191
291 97 265 335 332 332 325 43 41 24 57 343 49 329 317 348 330 317 336 68 99 137 150 178 170 143 201 34 340 331 280 321 145 205 202 294 38 311 61 24 12 345 327 303 272 285 343 43 247 308 338 310 256 289 30 24 25 331 222 201 195 186 149 176 235 151 189 201 228 205 259 263 269 199 186 200 206 195 198 195 207 212 210 208 205 199 192 192
358 46 322 330 323 340 54 57 23 1 63 35 344 332 308 329 344 335 339 2 99 357 67 110 265 148 140 279 198 305 354 282 222 143 257 192 3 141 1 21 19 336 336 314 300 302 186 246 258 289 231 266 273 279 278 284 271 241 260 241 200 172 138 176 213 245 136 222 132 172 330 256 233 194 204 199 196 205 204 200 206 211 210 205 206 203 195 194
38 240 281 302 324 343 78 70 55 38 14 322 315 272 267 287 2 310 346 17 42 67 42 78 187 104 299 108 287 137 24 262 196 205 219 239 266 242 20 333 11 337 341 298 295 298 296 85 293 280 288 260 264 258 270 265 203 265 226 276 276 224 211 220 208 176 186 254 204 251 261 267 246 204 203 209 206 204 212 196 203 221 222 211 213 207 198 198
345 295 315 316 337 350 74 47 8 15 358 335 357 307 312 302 9 360 13 16 9 344 346 153 352 89 139 349 210 184 112 17 207 166 316 205 276 95 345 321 345 330 350 345 333 3 5 262 123 324 357 329 300 315 110 35 42 43 326 308 307 318 296 241 92 109 207 194 183 171 240 254 273 347 254 260 240 217 185 236 235 221 216 203 206 214 209 204
296 225 229 309 352 26 68 43 22 15 8 349 335 351 354 352 13 11 339 23 344 339 353 354 357 49 44 349 300 235 178 168 288 243 215 185 233 12 286 285 331 303 297 291 287 304 291 282 57 130 157 198 213 212 176 335 337 311 286 315 332 15 350 340 228 182 221 232 168 198 236 239 161 51 105 36 296 273 280 241 242 239 247 221 208 219 215 207
359 7 320 357 4 32 75 73 73 28 10 9 356 351 332 342 343 2 1 70 11 341 309 321 12 56 36 10 3 341 316 201 166 263 115 247 277 293 210 217 294 297 296 305 314 306 240 227 194 205 189 219 223 282 224 213 312 313 311 314 296 311 299 254 283 196 222 193 197 230 221 258 228 221 185 212 218 209 257 291 258 244 242 237 217 212 210 209
290 71 343 340 336 73 85 35 35 17 14 335 356 343 355 345 321 323 1 342 0 355 329 56 40 31 355 14 358 313 261 277 259 275 261 273 226 234 223 257 263 273 287 316 349 333 271 278 242 214 236 252 275 278 282 287 281 277 285 288 293 292 294 298 235 238 133 125 239 228 254 249 260 244 220 214 231 242 248 243 257 254 247 234 219 209 218 213
52 288 108 219 62 333 356 1 17 350 326 329 277 310 1 342 348 359 326 59 352 358 7 319 48 63 4 3 296 279 304 277 275 255 284 258 318 287 296 213 225 264 319 341 349 338 292 262 253 198 246 256 258 265 271 270 253 263 267 274 284 290 287 258 247 245 216 214 231 224 204 220 257 290 26 326 222 238 240 241 245 249 246 243 238 223 210 209
106 41 65 287 358 18 179 273 321 338 322 325 311 14 342 352 342 14 340 311 336 340 52 348 321 338 326 329 46 262 288 325 293 276 263 288 240 292 290 341 285 196 99 350 330 294 314 259 263 260 274 278 271 260 257 242 238 244 245 255 267 277 278 254 253 256 244 257 264 208 206 230 294 355 318 322 291 257 257 266 287 282 256 241 235 230 212 204
354 4 340 288 229 276 265 306 275 10 341 334 23 287 322 324 325 337 320 305 316 309 32 343 318 322 324 313 292 232 241 235 265 281 259 295 288 243 259 216 214 52 111 270 311 288 241 274 278 10 308 281 271 254 226 219 224 254 261 291 310 318 280 240 228 261 297 273 262 250 236 255 310 329 326 315 337 349 18 5 343 312 277 245 229 218 202 193
255 219 265 305 322 262 247 167 337 340 329 302 159 344 336 331 314 326 301 272 256 292 333 314 312 311 310 304 280 254 259 261 263 254 263 263 266 222 203 284 166 184 191 224 221 276 304 276 4 9 1 295 261 203 229 259 235 217 278 355 353 350 12 11 65 7 306 273 323 307 269 286 313 335 308 355 15 30 17 355 351 338 322 282 231 208 192 186
310 281 24 14 294 338 325 227 277 285 293 227 308 335 329 298 296 309 317 240 136 210 280 296 303 299 291 288 273 267 273 270 269 273 266 257 248 253 239 246 178 187 167 188 202 254 243 280 314 305 288 256 258 262 315 297 157 194 5 358 341 340 14 35 37 28 10 261 73 4 259 301 301 309 351 12 23 28 22 5 347 345 336 310 250 216 194 188